Weather History for Las Cruces, NM

Change the Weather History Date:

Wednesday, June 12, 2013

  Actual Average Record
Temperature  
Mean Temperature 86 °F -  
Max Temperature 104 °F 90 °F 104 °F (2013)
Min Temperature 68 °F 62 °F 53 °F (2011)
Cooling Degree Days 21    
Growing Degree Days 36 (Base 50)    
Moisture  
Dew Point 32 °F    
Average Humidity 14    
Maximum Humidity 26    
Minimum Humidity 8    
Precipitation  
Precipitation 0.00 in - - ()
Sea Level Pressure  
Sea Level Pressure 30.03 in    
Wind  
Wind Speed 7 mph (ESE)    
Max Wind Speed 24 mph    
Max Gust Speed 31 mph    
Visibility 10 miles    
Events      
Averages and records for this station are not official NWS values.
T = Trace of Precipitation, MM = Missing Value Source: NWS Daily Summary

Daily Weather History Graph

Daily Weather History Graph

Search for Another Location

Airport:

Trip Planner

Search our weather history database for the weather conditions in past years. The results will help you decide how hot, cold, wet, or windy it might be!

Date:

Astronomy

Jun. 12, 2013 Rise Set
Actual Time 6:00 AM MDT 8:15 PM MDT
Civil Twilight 5:31 AM MDT 8:43 PM MDT
Nautical Twilight 4:57 AM MDT 9:18 PM MDT
Astronomical Twilight 4:19 AM MDT 9:55 PM MDT
Moon 9:32 AM MDT (6/12) 11:03 PM MDT (6/12)
Length of Visible Light 15h 11m
Length of Day
14h 14m
Waxing Crescent, 14% of the Moon is Illuminated
Jun 12
Waxing Crescent
Jun 16
First Quarter
Jun 23
Full
Jun 29
Last Quarter
Jul 8
New

Hourly Weather History & Observations

Time (MDT) Temp. Dew Point Humidity Pressure Visibility Wind Dir Wind Speed Gust Speed Precip Events Conditions
12:15 AM 86.4 °F 30.6 °F 13% 30.04 in 10.0 mi SE 9.2 mph - N/A   Clear
12:35 AM 86.2 °F 30.4 °F 13% 30.04 in 10.0 mi SSE 11.5 mph - N/A   Clear
12:55 AM 84.9 °F 29.3 °F 13% 30.04 in 10.0 mi SSE 9.2 mph - N/A   Clear
1:15 AM 83.5 °F 29.1 °F 14% 30.04 in 10.0 mi SSE 9.2 mph - N/A   Clear
1:35 AM 82.4 °F 29.3 °F 15% 30.04 in 10.0 mi SSE 8.1 mph - N/A   Clear
1:55 AM 82.4 °F 30.2 °F 15% 30.04 in 10.0 mi South 8.1 mph - N/A   Clear
2:15 AM 82.0 °F 32.0 °F 16% 30.03 in 10.0 mi South 9.2 mph - N/A   Clear
2:35 AM 81.7 °F 32.9 °F 17% 30.03 in 10.0 mi South 9.2 mph - N/A   Clear
2:55 AM 81.3 °F 33.1 °F 18% 30.03 in 10.0 mi South 6.9 mph - N/A   Clear
3:15 AM 79.2 °F 33.3 °F 19% 30.04 in 10.0 mi ESE 5.8 mph - N/A   Clear
3:35 AM 76.1 °F 32.4 °F 20% 30.03 in 10.0 mi Calm Calm - N/A   Clear
3:55 AM 71.8 °F 32.0 °F 23% 30.03 in 10.0 mi Calm Calm - N/A   Clear
4:15 AM 69.8 °F 31.8 °F 25% 30.04 in 10.0 mi Calm Calm - N/A   Clear
4:35 AM 68.7 °F 31.1 °F 25% 30.04 in 10.0 mi Calm Calm - N/A   Clear
4:55 AM 68.4 °F 31.3 °F 25% 30.04 in 10.0 mi Calm Calm - N/A   Clear
5:15 AM 69.3 °F 32.0 °F 25% 30.04 in 10.0 mi NNW 3.5 mph - N/A   Clear
5:35 AM 68.2 °F 31.8 °F 26% 30.05 in 10.0 mi NNE 6.9 mph - N/A   Clear
5:55 AM 70.3 °F 32.0 °F 24% 30.05 in 10.0 mi North 3.5 mph - N/A   Clear
6:15 AM 69.3 °F 32.0 °F 25% 30.05 in 10.0 mi NNW 3.5 mph - N/A   Clear
6:35 AM 69.8 °F 32.0 °F 25% 30.06 in 10.0 mi NNW 5.8 mph - N/A   Clear
6:55 AM 72.1 °F 32.0 °F 23% 30.06 in 10.0 mi NNW 4.6 mph - N/A   Clear
7:15 AM 77.7 °F 32.9 °F 20% 30.07 in 10.0 mi NNW 4.6 mph - N/A   Clear
7:35 AM 82.0 °F 27.5 °F 14% 30.07 in 10.0 mi NW 3.5 mph - N/A   Clear
7:55 AM 84.0 °F 25.5 °F 12% 30.07 in 10.0 mi NNW 5.8 mph - N/A   Clear
8:15 AM 84.0 °F 31.6 °F 15% 30.08 in 10.0 mi ENE 4.6 mph - N/A   Clear
8:35 AM 84.7 °F 27.0 °F 12% 30.08 in 10.0 mi WNW 5.8 mph - N/A   Clear
8:55 AM 85.1 °F 27.1 °F 12% 30.08 in 10.0 mi NNW 4.6 mph - N/A   Clear
9:15 AM 85.5 °F 33.8 °F 16% 30.09 in 10.0 mi ESE 3.5 mph - N/A   Clear
9:35 AM 86.2 °F 30.9 °F 14% 30.08 in 10.0 mi East 3.5 mph - N/A   Clear
9:55 AM 87.3 °F 27.7 °F 12% 30.09 in 10.0 mi Calm Calm - N/A   Clear
10:15 AM 88.9 °F 28.6 °F 11% 30.09 in 10.0 mi Calm Calm - N/A   Clear
10:35 AM 89.6 °F 30.2 °F 12% 30.09 in 10.0 mi East 6.9 mph - N/A   Clear
10:55 AM 90.0 °F 33.4 °F 13% 30.09 in 10.0 mi ESE 3.5 mph - N/A   Clear
11:15 AM 90.5 °F 35.2 °F 14% 30.09 in 10.0 mi ENE 4.6 mph - N/A   Clear
11:35 AM 91.9 °F 35.6 °F 14% 30.08 in 10.0 mi ESE 3.5 mph - N/A   Clear
11:55 AM 92.5 °F 34.5 °F 13% 30.08 in 10.0 mi East 6.9 mph - N/A   Clear
12:15 PM 95.4 °F 34.7 °F 12% 30.07 in 10.0 mi ESE 5.8 mph - N/A   Clear
12:35 PM 94.8 °F 34.2 °F 12% 30.07 in 10.0 mi East 6.9 mph - N/A   Clear
12:55 PM 97.7 °F 34.2 °F 11% 30.06 in 10.0 mi East 6.9 mph - N/A   Clear
1:15 PM 97.5 °F 34.0 °F 11% 30.06 in 10.0 mi East 5.8 mph - N/A   Clear
1:35 PM 99.7 °F 33.3 °F 10% 30.05 in 10.0 mi ENE 3.5 mph - N/A   Clear
1:55 PM 99.3 °F 34.3 °F 10% 30.04 in 10.0 mi SE 5.8 mph - N/A   Clear
2:15 PM 100.9 °F 33.1 °F 9% 30.03 in 10.0 mi East 8.1 mph - N/A   Clear
2:35 PM 100.9 °F 32.2 °F 9% 30.02 in 10.0 mi East 6.9 mph - N/A   Clear
2:55 PM 101.8 °F 33.3 °F 9% 30.01 in 10.0 mi ESE 5.8 mph - N/A   Clear
3:15 PM 101.8 °F 31.5 °F 9% 30.00 in 10.0 mi East 8.1 mph - N/A   Clear
3:35 PM 103.3 °F 31.6 °F 8% 30.00 in 10.0 mi East 9.2 mph - N/A   Clear
3:55 PM 102.6 °F 31.1 °F 8% 29.99 in 10.0 mi SE 5.8 mph - N/A   Clear
4:15 PM 101.5 °F 29.8 °F 8% 29.99 in 10.0 mi Calm Calm - N/A   Clear
4:35 PM 104.0 °F 31.8 °F 8% 29.98 in 10.0 mi ESE 6.9 mph - N/A   Clear
4:55 PM 102.7 °F 32.9 °F 9% 29.97 in 10.0 mi SSE 8.1 mph - N/A   Clear
5:15 PM 102.9 °F 32.9 °F 9% 29.96 in 10.0 mi SE 8.1 mph - N/A   Clear
5:35 PM 103.3 °F 32.4 °F 8% 29.96 in 10.0 mi SSE 9.2 mph - N/A   Clear
5:55 PM 103.1 °F 31.8 °F 8% 29.95 in 10.0 mi ESE 9.2 mph - N/A   Clear
6:15 PM 102.4 °F 32.5 °F 9% 29.95 in 10.0 mi SE 6.9 mph - N/A   Clear
6:35 PM 101.1 °F 32.2 °F 9% 29.95 in 10.0 mi South 8.1 mph - N/A   Clear
6:55 PM 101.8 °F 32.0 °F 9% 29.95 in 10.0 mi SSE 3.5 mph - N/A   Clear
7:15 PM 100.8 °F 33.8 °F 10% 29.96 in 10.0 mi ESE 19.6 mph 27.6 mph N/A   Clear
7:35 PM 98.2 °F 31.8 °F 10% 29.96 in 10.0 mi SE 16.1 mph 24.2 mph N/A   Clear
7:55 PM 98.1 °F 27.7 °F 8% 29.96 in 10.0 mi SE 24.2 mph 31.1 mph N/A   Clear
8:15 PM 97.0 °F 28.9 °F 9% 29.97 in 10.0 mi SE 15.0 mph 20.7 mph N/A   Clear
8:35 PM 96.3 °F 30.4 °F 10% 29.98 in 10.0 mi SSE 16.1 mph 21.9 mph N/A   Clear
8:55 PM 95.0 °F 31.1 °F 10% 29.98 in 10.0 mi SE 15.0 mph - N/A   Clear
9:15 PM 94.1 °F 33.4 °F 12% 29.99 in 10.0 mi ESE 13.8 mph - N/A   Clear
9:35 PM 92.3 °F 34.9 °F 13% 30.00 in 10.0 mi ESE 17.3 mph 27.6 mph N/A   Clear
9:55 PM 90.7 °F 35.8 °F 14% 30.02 in 10.0 mi SE 11.5 mph 18.4 mph N/A   Clear
10:15 PM 90.5 °F 34.7 °F 14% 30.04 in 10.0 mi ESE 9.2 mph - N/A   Clear
10:35 PM 89.2 °F 35.1 °F 15% 30.06 in 10.0 mi NE 8.1 mph - N/A   Clear
10:55 PM 88.7 °F 35.6 °F 15% 30.07 in 10.0 mi ENE 8.1 mph 11.5 mph N/A   Clear
11:15 PM 87.8 °F 35.4 °F 16% 30.07 in 10.0 mi ESE 10.4 mph - N/A   Clear
11:35 PM 86.7 °F 36.7 °F 17% 30.06 in 10.0 mi ESE 12.7 mph - N/A   Clear
11:55 PM 85.6 °F 38.7 °F 19% 30.06 in 10.0 mi ESE 10.4 mph 16.1 mph N/A   Clear